DW6561 Weather Reports


Display with metric or nautical units.
time (UTC)temp
F
wind
direction
speed
MPH
gust
MPH
rain 1hr
in
rain 24hr
in
rain mn
in
humidity
%
barometer
mb
20260503200012 84 92 0.0 2.0 0.00 0.00 0.00 28 1013.0
20260503194512 83 318 0.0 3.0 0.00 0.00 0.00 35 1013.2
20260503193005 83 328 0.0 2.0 0.00 0.00 0.00 33 1013.5
20260503191526 82 322 0.0 3.0 0.00 0.00 0.00 33 1013.8
20260503190011 81 315 0.0 2.0 0.00 0.00 0.00 35 1013.9
20260503184509 80 309 0.0 2.0 0.00 0.00 0.00 37 1014.0
20260503183027 79 315 0.0 2.0 0.00 0.00 0.00 40 1014.0
20260503181527 78 296 0.0 3.0 0.00 0.00 0.00 40 1014.3
20260503180010 76 328 0.0 3.0 0.00 0.00 0.00 42 1014.5
20260503174508 75 274 0.0 3.0 0.00 0.00 0.00 42 1014.6
20260503173038 74 321 0.0 3.0 0.00 0.00 0.00 44 1014.7
20260503171518 73 323 0.0 2.0 0.00 0.00 0.00 43 1014.7
20260503081525 63 155 0.0 4.0 0.00 0.00 0.00 48 1013.7
20260503071504 64 168 0.0 2.0 0.00 0.00 0.00 47 1013.5
20260503054507 67 213 0.0 2.0 0.00 0.00 0.00 43 1013.1
20260503053012 68 229 0.0 2.0 0.00 0.00 0.00 41 1012.9
20260503051511 69 15 0.0 2.0 0.00 0.00 0.00 41 1012.9
20260503050003 70 350 0.0 0.0 0.00 0.00 0.00 41 1012.8
20260503044504 72 350 0.0 0.0 0.00 0.00 0.00 39 1012.7
20260503043007 73 350 0.0 1.0 0.00 0.00 0.00 38 1012.7
20260503041514 73 350 0.0 0.0 0.00 0.00 0.00 37 1012.4
20260503040017 74 331 0.0 2.0 0.00 0.00 0.00 34 1012.3
20260503034503 75 346 0.0 0.0 0.00 0.00 0.00 35 1012.1
20260503033012 77 346 0.0 1.0 0.00 0.00 0.00 32 1011.9
20260503031508 78 346 0.0 0.0 0.00 0.00 0.00 30 1011.7
20260503030005 80 346 0.0 2.0 0.00 0.00 0.00 28 1011.5
20260503023005 81 341 0.0 1.0 0.00 0.00 0.00 26 1011.3
20260503021518 82 9 0.0 3.0 0.00 0.00 0.00 25 1011.3
20260503020021 83 348 0.0 3.0 0.00 0.00 0.00 24 1011.2
20260503014509 84 74 0.0 3.0 0.00 0.00 0.00 24 1011.2
20260503013006 84 327 0.0 2.0 0.00 0.00 0.00 24 1011.2
20260503011506 85 69 0.0 5.0 0.00 0.00 0.00 25 1011.2
20260503010012 85 101 1.0 6.0 0.00 0.00 0.00 23 1011.3
20260503004519 86 298 1.0 6.0 0.00 0.00 0.00 22 1011.3
20260503003031 87 86 0.0 4.0 0.00 0.00 0.00 23 1011.5
20260503001518 88 80 1.0 3.0 0.00 0.00 0.00 22 1011.4
20260503000027 88 90 0.0 4.0 0.00 0.00 0.00 23 1011.4
20260502234539 88 71 0.0 2.0 0.00 0.00 0.00 23 1011.5
20260502231530 87 117 1.0 3.0 0.00 0.00 0.00 24 1011.7
20260502230023 87 130 1.0 4.0 0.00 0.00 0.00 24 1011.9
20260502224517 86 247 0.0 4.0 0.00 0.00 0.00 25 1012.3
20260502223033 86 109 1.0 6.0 0.00 0.00 0.00 26 1012.5
20260502221503 86 115 0.0 3.0 0.00 0.00 0.00 28 1012.8
20260502214511 85 311 0.0 3.0 0.00 0.00 0.00 28 1013.1
20260502213006 84 327 0.0 2.0 0.00 0.00 0.00 30 1013.3
20260502211510 84 301 1.0 4.0 0.00 0.00 0.00 31 1013.4
20260502210014 83 5 1.0 5.0 0.00 0.00 0.00 33 1013.6
20260502204508 82 301 1.0 6.0 0.00 0.00 0.00 34 1013.7
20260502203012 81 39 1.0 3.0 0.00 0.00 0.00 31 1013.9
20260502201510 81 223 0.0 2.0 0.00 0.00 0.00 38 1014.1